Location: Newark
(43.0847°N, 2.6989°E)
Time: 02:59:49
(UTC+00:00)

N. Korean satellite - Visible Passes

Search period start: 23 January 2020 00:00
Search period end: 02 February 2020 00:00
Orbit: 454 x 507 km, 97.2° (Epoch: 22 January)

Date Brightness Start Highest point End Pass type
(mag) Time Alt. Az. Time Alt. Az. Time Alt. Az.
23 Jan 8.8 05:03:14 10° NE 05:06:18 27° E 05:09:24 10° SSE visible
23 Jan 7.9 06:36:57 10° NNW 06:39:32 19° WNW 06:42:08 10° WSW visible
23 Jan 8.1 17:12:32 10° S 17:15:46 40° W 17:19:03 10° NNW visible
24 Jan 9.9 04:38:46 10° ENE 04:40:38 14° E 04:42:32 10° ESE visible
24 Jan 7.0 06:10:52 10° N 06:14:11 37° WNW 06:17:32 10° SW visible
25 Jan 6.4 05:45:10 10° N 05:48:45 82° WNW 05:52:22 10° SSW visible
25 Jan 10.0 17:56:59 10° WSW 17:58:23 12° W 17:59:47 10° WNW visible
26 Jan 7.7 05:19:47 10° NNE 05:23:14 44° E 05:26:43 10° S visible
26 Jan 9.2 17:29:51 10° SSW 17:32:42 24° W 17:35:34 10° NW visible
27 Jan 9.2 04:54:48 10° NE 04:57:38 22° E 05:00:30 10° SSE visible
27 Jan 7.7 06:28:02 10° NNW 06:30:58 24° WNW 06:33:55 10° SW visible
28 Jan 10.1 04:30:55 10° ENE 04:31:57 11° E 04:32:59 10° ESE visible
28 Jan 6.7 06:02:06 10° N 06:05:35 48° WNW 06:09:06 10° SSW visible
29 Jan 6.7 05:36:31 10° NNE 05:40:08 77° E 05:43:47 10° S visible
29 Jan 9.8 17:47:34 10° SW 17:49:39 15° W 17:51:46 10° NW visible
30 Jan 8.3 05:11:14 10° NNE 05:14:35 35° E 05:17:57 10° SSE visible
31 Jan 9.6 04:46:25 10° NE 04:48:57 18° E 04:51:29 10° SE visible
31 Jan 7.4 06:19:10 10° N 06:22:23 30° WNW 06:25:36 10° SW visible
01 Feb 6.5 05:53:22 10° N 05:56:58 63° WNW 06:00:36 10° SSW visible
